Weather History for St. Joseph, MO

Change the Weather History Date:

Wednesday, April 25, 2012

  Actual Average Record
Temperature  
Mean Temperature 79 °F 57 °F  
Max Temperature 96 °F 68 °F 96 °F (2012)
Min Temperature 61 °F 46 °F 31 °F (2013)
Degree Days  
Heating Degree Days 0 9  
Month to date heating degree days 198 306  
Since 1 July heating degree days 4184 5299  
Cooling Degree Days 14 1  
Month to date cooling degree days 39 18  
Year to date cooling degree days 84 20  
Growing Degree Days 28 (Base 50)    
Moisture  
Dew Point 53 °F    
Average Humidity 51    
Maximum Humidity 84    
Minimum Humidity 17    
Precipitation  
Precipitation T in 0.15 in 1.56 in (1904)
Month to date precipitation 1.60 2.92  
Year to date precipitation 8.39 6.66  
Sea Level Pressure  
Sea Level Pressure 29.56 in    
Wind  
Wind Speed 9 mph (West)    
Max Wind Speed 23 mph    
Max Gust Speed 31 mph    
Visibility 10 miles    
Events      
T = Trace of Precipitation, MM = Missing Value Source: NWS Daily Summary

Daily Weather History Graph

Daily Weather History Graph

Search for Another Location

Airport:

Trip Planner

Search our weather history database for the weather conditions in past years. The results will help you decide how hot, cold, wet, or windy it might be!

Date:

Astronomy

Apr. 25, 2012 Rise Set
Actual Time 6:27 AM CDT 8:08 PM CDT
Civil Twilight 5:58 AM CDT 8:37 PM CDT
Nautical Twilight 5:23 AM CDT 9:12 PM CDT
Astronomical Twilight 4:46 AM CDT 9:49 PM CDT
Moon 9:13 AM CDT No Moon Set
Length of Visible Light 14h 38m
Length of Day
13h 41m
Waxing Crescent, 17% of the Moon is Illuminated
Apr 25
Waxing Crescent
Apr 29
First Quarter
May 5
Full
May 12
Last Quarter
May 20
New

Hourly Weather History & Observations

Time (CDT) Temp. Heat Index Dew Point Humidity Pressure Visibility Wind Dir Wind Speed Gust Speed Precip Events Conditions
12:53 AM 63.0 °F - 57.0 °F 81% 29.55 in 10.0 mi South 5.8 mph - N/A   Clear
1:53 AM 61.0 °F - 55.9 °F 83% 29.54 in 10.0 mi SSW 5.8 mph - N/A   Clear
2:53 AM 66.0 °F - 57.0 °F 73% 29.53 in 10.0 mi WSW 9.2 mph - N/A   Clear
3:20 AM 69.8 °F - 57.2 °F 64% 29.53 in 10.0 mi SW 9.2 mph - N/A   Scattered Clouds
3:53 AM 70.0 °F - 57.0 °F 63% 29.49 in 10.0 mi South 9.2 mph 19.6 mph N/A   Clear
4:53 AM 69.1 °F - 57.0 °F 65% 29.50 in 10.0 mi SSW 10.4 mph 19.6 mph N/A   Clear
5:53 AM 68.0 °F - 57.0 °F 68% 29.51 in 10.0 mi South 4.6 mph - 0.00 in   Clear
6:53 AM 66.0 °F - 57.0 °F 73% 29.51 in 10.0 mi South 8.1 mph - N/A   Clear
7:53 AM 68.0 °F - 57.9 °F 70% 29.53 in 10.0 mi SSW 6.9 mph - N/A   Clear
8:53 AM 71.1 °F - 57.9 °F 63% 29.54 in 10.0 mi SW 10.4 mph - N/A   Clear
9:53 AM 73.0 °F - 57.9 °F 59% 29.53 in 10.0 mi SW 5.8 mph - N/A   Clear
10:53 AM 77.0 °F - 59.0 °F 54% 29.54 in 10.0 mi WSW 8.1 mph - N/A   Clear
11:53 AM 80.1 °F 80.6 °F 57.9 °F 47% 29.55 in 10.0 mi Calm Calm - N/A   Clear
12:53 PM 84.0 °F 83.8 °F 59.0 °F 43% 29.53 in 10.0 mi Variable 3.5 mph - N/A   Clear
1:53 PM 88.0 °F 86.9 °F 57.9 °F 36% 29.54 in 10.0 mi NW 8.1 mph - N/A   Clear
2:53 PM 91.9 °F 90.3 °F 55.9 °F 30% 29.53 in 10.0 mi NW 9.2 mph - N/A   Clear
3:53 PM 93.9 °F - 51.1 °F 23% 29.52 in 10.0 mi NW 16.1 mph - N/A   Clear
4:53 PM 95.0 °F - 45.0 °F 18% 29.52 in 10.0 mi NW 17.3 mph 25.3 mph N/A   Clear
5:53 PM 93.0 °F - 44.1 °F 18% 29.55 in 10.0 mi NNW 18.4 mph 29.9 mph N/A   Clear
6:53 PM 91.0 °F - 45.0 °F 20% 29.57 in 10.0 mi NW 15.0 mph - N/A   Clear
7:53 PM 84.0 °F - 46.0 °F 26% 29.60 in 10.0 mi NNW 10.4 mph - N/A   Clear
8:53 PM 79.0 °F - 46.0 °F 31% 29.64 in 10.0 mi NW 10.4 mph - N/A   Clear
9:53 PM 70.0 °F - 44.1 °F 39% 29.69 in 10.0 mi NNW 4.6 mph - N/A   Clear
10:53 PM 69.1 °F - 45.0 °F 42% 29.72 in 10.0 mi North 8.1 mph - N/A   Clear
11:53 PM 64.9 °F - 46.0 °F 50% 29.73 in 10.0 mi North 5.8 mph - N/A   Clear